Tracking 19903 objects as of 16-Oct-2019
HD Live streaming from Space Station
objects crossing your sky now

OPS 2222

Track OPS 2222 now!
OPS 2222 is classified as:


NORAD ID: 3334
Int'l Code: 1968-063A
Perigee: 32,019.3 km
Apogee: 40,145.0 km
Inclination: 11.9 °
Period: 1,450.9 minutes
Semi major axis: 42453 km
RCS: Unknown
Launch date: August 6, 1968
Source: United States (US)
Launch site: AIR FORCE EASTERN TEST RANGE (AFETR)
aabbcc
Your satellite tracking list
Your tracking list is empty




NASA's NSSDC Master Catalog

Two Line Element Set (TLE):
1  3334U 68063A   19288.64814726 -.00000030 +00000-0 +00000-0 0  9996
2  3334 011.9150 312.1991 0957018 162.5430 337.2499 00.99251569001946
Source of the keplerian elements: McCants